THOR ABLESTAR DEB, 405

Orbit data source: Space-Track

THOR ABLESTAR DEB, 405 is space debris in LEO originally from a launch on Thu, 29 Jun 1961 UTC launched from the Air Force Eastern Test Range (AFETR). Debris objects in space refer to the collection of defunct objects orbiting the Earth. Examples of debris include non-operational satellites, rocket bodies, and fragments generated from explosions, collisions, or faulty payload assembly.

Loading next visibility...
Identifier
405, 1961-015EE
Orbit
LEO
Country
Flag of USUS
Related business
Manufacturer
Unknown
Mission
Spacecraft
Bus & Motor
Unknown
Mass
Unknown
Launch date (UTC)
1961-06-29 (64 years ago)
Launch vehicle
Unknown
Launch site
Air Force Eastern Test Range (AFETR)
Object type
Payload
Rocket body
Debris
Shape & HBR
Unknown
Radar Cross Section
Small (<0.1 m²)

Expand to show TLE details & history
Last TLE update: 1 day ago

TLE from 1 day ago
0 THOR ABLESTAR DEB
1 00405U 61015EE  25260.91447137  .00000121  00000-0  22543-3 0  9996
2 00405  66.8916  78.5138 0083948   2.9158 104.3674 13.66586805194946
Epoch: 2025-09-17T21:56Z
TLE epoch observation values (Epoch: 2025-09-17T21:56:50.326Z)
Latitude
61.00284°
Longitude
-117.76863°
Altitude
1,037.319 km
Speed
7.331 km/s
True Right ascension
13h 54m 05s
True Declination
60° 51' 44"
Sunlit
Object was in daylight at epoch
Visualization orbit readout
Latitude
Unknown
Longitude
Unknown
Altitude
Unknown
Speed
Unknown
Apparent Right ascension
Unknown
Apparent Declination
Unknown
Sunlit
N/A
Visualization observer readout
Local Sidereal Time
18:39:49
Azimuth
Unknown
Elevation
Unknown
Doppler factor
Unknown
Orbital elements
Apogee altitude
1,072.276 km
Perigee altitude
948.228 km
Semi-major axis
7,388.389 km
Eccentricity
0.00839
Inclination
66.8916°
RAAN
78.5138°
Arg. of periapsis
2.9158°
True anomaly
105.29683°
Mean anomaly
104.3674°
Eccentric anomaly
104.83236°
Mean motion
3.41758 °/min
Orbital period
105.34 mins
BSTAR
0.00022543
Loading maneuver chart data...
Computing Atmospheric mass density...

Documentation

Showing up to 5 results
|